{"data":{"norad_id":62067,"intl_designator":"2024-217L","name":"STARLINK-11472 [DTC]","alt_names":[],"object_type":"PAYLOAD","status":"ACTIVE","operator":null,"country":"US","launch_date":"2024-11-24","launch_site_code":"AFWTR","launch_vehicle":null,"mission":null,"orbit_class":"UNKNOWN","rcs_meters":null,"size_class":null,"mass_kg":null,"dimensions":null,"purposes":["comms"],"wikipedia_slug":null,"has_3d_model":false,"image_url":null,"decayed_at":null,"tle_current":{"epoch":"2026-09-21T12:06:47.458080Z","epoch_age_seconds":94402,"freshness":"FRESH","line1":"1 62067U 24217L   26264.50471595  .00107104  00000+0  87607-3 0  9996","line2":"2 62067  53.1577 186.3142 0001090  87.3874 272.7269 15.69750267105855","mean_motion":15.69750267,"eccentricity":0.000109,"inclination_deg":53.1577,"raan_deg":186.3142,"arg_perigee_deg":87.3874,"mean_anomaly_deg":272.7269,"bstar":0.00087607,"rev_number":10585,"period_min":91.734337000753,"perigee_km":358.87710955324,"apogee_km":360.3459387315,"semimajor_km":6737.7485241424,"source":"CELESTRAK","updated_at":"2026-09-22T09:00:49.493642Z"}}}